[[{"header":{"parameterUnit":"m.s-1","parameterCategory":1,"la1":30.2991,"la2":30.254,"lo1":-89.0895,"lo2":-89.0444,"dy":0.0017,"dx":0.0017,"nx":28,"ny":28,"refTime":"2024-03-15T21:00:00:Z","depth":0,"parameterNumber":2,"parameterNumberName":"U-component_of_WINDS"},"data":[0,0,0,0,0,0,0,0,0,0,0,0,0,0,0,0,0,0,0,0,0,0,0,0,0,0,0,0,0,0,0,0,0,0,0,0,0,0,0,0,0,0,0,0,0,0,0,0,0,0,0,0,0,0,0,0,0,0,0.7418,0.7418,0,0.7476,0.7477,0.7478,0.7486,0.7486,0.7485,0.7485,0.7544,0.7546,0.7548,0,0,0,0,0,0,0,0,0,0,0,0,0,0.7312,0.7314,0.7417,0.7418,0.7419,0.7476,0.7477,0.7478,0.7486,0.7486,0.7485,0.7485,0.7543,0.7546,0.7548,0,0,0,0,0,0,0,0,0,0,0,0,0,0.7363,0.7314,0.7417,0.743,0.7432,0.7476,0.7477,0.7478,0.7487,0.7486,0.7485,0.7484,0.7543,0.7546,0.7549,0.7584,0,0,0.7558,0.756,0,0,0,0,0,0,0,0,0.736,0.7367,0.7428,0.7429,0.7431,0.7473,0.7462,0.7513,0.7487,0.7466,0.7485,0.7484,0.7521,0.7526,0.7539,0.7587,0.7589,0.7558,0.756,0.7562,0.7563,0,0,0,0,0,0,0,0.7357,0.7364,0.7441,0.7428,0.7431,0.7433,0.7439,0.7471,0.7497,0.7468,0.7468,0.7475,0.7522,0.7536,0.754,0.759,0.7558,0.7561,0.7563,0.7564,0.7669,0.767,0,0,0,0,0,0,0.7351,0.7361,0.7439,0.7442,0.7393,0.7435,0.7442,0.7461,0.7497,0.7502,0.7476,0.7475,0.7531,0.7536,0.7542,0.7586,0.7562,0.7565,0.7566,0.7668,0.767,0.7671,0,0,0,0,0,0,0.7348,0.7358,0.7436,0.7402,0.7412,0.7438,0.7458,0.7462,0.7476,0.7503,0.7508,0.7485,0.753,0.7538,0.7573,0.7588,0.7566,0.7569,0.7667,0.7669,0.767,0.7672,0,0,0,0,0,0,0.7345,0.7357,0.737,0.7402,0.7414,0.7467,0.7459,0.7464,0.7481,0.7481,0.7513,0.7518,0.753,0.7569,0.7576,0.7592,0.7571,0.7666,0.7668,0.767,0.7671,0.7674,0.7676,0,0,0,0,0,0.7342,0.7369,0.7371,0.738,0.7432,0.7468,0.7474,0.7489,0.7482,0.7496,0.7514,0.7517,0.7585,0.7572,0.7581,0.7597,0.7665,0.7668,0.767,0.767,0.7673,0.7676,0,0,0,0,0,0,0.7337,0.7373,0.7376,0.7414,0.7438,0.7469,0.7487,0.7492,0.7517,0.7516,0.7533,0.754,0.7574,0.759,0.7575,0.7633,0.7625,0.7629,0.7622,0.7625,0.7628,0.7623,0.7574,0,0,0,0,0,0.7341,0.7367,0.7397,0.7428,0.7439,0.7461,0.7477,0.7486,0.7511,0.7521,0.7541,0.7565,0.7592,0.761,0.7636,0.7674,0.768,0.7689,0.7691,0.7693,0.7696,0.7717,0.7721,0.7677,0.7677,0.7677,0,0,0.7348,0.7371,0.7387,0.7427,0.7447,0.7473,0.747,0.7498,0.7518,0.7526,0.756,0.7576,0.7604,0.764,0.7658,0.7654,0.771,0.7696,0.7697,0.7699,0.772,0.7724,0.7728,0.7679,0.7679,0.7678,0,0,0.7375,0.7395,0.7423,0.7443,0.7472,0.7487,0.7493,0.7524,0.7535,0.757,0.7577,0.76,0.7646,0.7666,0.7682,0.7717,0.772,0.7725,0.7737,0.7757,0.776,0.7764,0.7776,0.778,0.7728,0.7728,0.7728,0,0.7381,0.7422,0.7437,0.7465,0.7483,0.7492,0.752,0.7538,0.7574,0.7586,0.7582,0.764,0.7659,0.77,0.7709,0.7722,0.7729,0.7721,0.7759,0.7762,0.7765,0.7777,0.7782,0.7728,0.7728,0.7728,0.7728,0,0.7427,0.7455,0.7474,0.7509,0.7529,0.7557,0.7576,0.7594,0.7602,0.7617,0.7652,0.7676,0.7707,0.7718,0.7725,0.776,0.7757,0.7755,0.7747,0.7769,0.7781,0.7785,0.7729,0.7728,0.7728,0.7728,0,0,0.7452,0.7496,0.7503,0.7519,0.7552,0.7574,0.7602,0.7633,0.7648,0.7673,0.7697,0.7736,0.7735,0.7753,0.7763,0.7781,0.7806,0.7777,0.7778,0.7782,0.7846,0.7847,0.7852,0.7809,0.781,0.7811,0.7844,0,0.7483,0.7534,0.7549,0.7592,0.7618,0.7627,0.7652,0.7675,0.7689,0.7713,0.7729,0.7756,0.7753,0.7764,0.7782,0.7799,0.782,0.7797,0.7831,0.7832,0.7824,0.7858,0.7859,0.7889,0.7848,0.7849,0.785,0,0.7526,0.7552,0.7598,0.7628,0.7639,0.7661,0.7691,0.7714,0.774,0.7749,0.7769,0.7778,0.7807,0.7798,0.7839,0.7823,0.7838,0.7848,0.785,0.7853,0.7842,0.7862,0.7899,0.7903,0.7857,0.7856,0.7856,0,0.754,0.7586,0.7619,0.7633,0.7669,0.7684,0.77,0.7725,0.7743,0.7769,0.778,0.7809,0.7824,0.7846,0.7862,0.7854,0.7901,0.7893,0.791,0.7909,0.7919,0.7918,0.7958,0.7929,0.7929,0.7929,0.7929,0,0.7572,0.76,0.7626,0.7647,0.7678,0.7694,0.7724,0.774,0.7763,0.7787,0.7796,0.7818,0.7837,0.7862,0.7874,0.7906,0.7913,0.7921,0.7924,0.792,0.7919,0.793,0.7928,0.793,0.793,0.793,0.793,0,0.7592,0.7611,0.7648,0.768,0.7688,0.771,0.7736,0.7756,0.7771,0.7801,0.7809,0.7832,0.7862,0.7879,0.7916,0.7925,0.796,0.7962,0.7951,0.7952,0.7968,0.7966,0.8016,0.8023,0.7989,0.799,0.799,0,0.7612,0.7633,0.7667,0.7684,0.77,0.7726,0.7744,0.7762,0.778,0.7812,0.7828,0.7858,0.7882,0.7929,0.7949,0.7977,0.798,0.7996,0.7984,0.798,0.798,0.7978,0.798,0.7997,0.7997,0.7998,0.7998,0,0.7644,0.7652,0.7678,0.7708,0.7729,0.7753,0.7777,0.779,0.7811,0.7831,0.7862,0.7881,0.7919,0.7948,0.7978,0.7994,0.7999,0.8001,0.8007,0.8003,0.7995,0.7999,0.7956,0.8,0.8,0.8,0.8,0.7999,0.7664,0.7684,0.7711,0.7739,0.7759,0.7781,0.7802,0.7819,0.7845,0.7877,0.7886,0.7918,0.7943,0.7984,0.8001,0.8025,0.8023,0.8031,0.8033,0.8034,0.8034,0.7992,0.8031,0.8031,0.8031,0.8031,0.8031,0,0.7697,0.7715,0.7741,0.7774,0.7797,0.78,0.7827,0.7845,0.7873,0.7897,0.7921,0.7956,0.7984,0.8007,0.8036,0.8052,0.8055,0.8059,0.8058,0.8061,0.8035,0.8027,0.8056,0.8056,0.8056,0.8056,0.8056,0.8056,0.7716,0.7749,0.7761,0.7804,0.7822,0.7853,0.7868,0.7888,0.7907,0.7945,0.7969,0.7984,0.8007,0.8039,0.8065,0.8071,0.8081,0.8084,0.8091,0.8066,0.8063,0.806,0.8053,0.8086,0.8087,0.8115,0.8115,0.8115]},{"header":{"parameterUnit":"m.s-1","parameterCategory":1,"la1":30.2991,"la2":30.254,"lo1":-89.0895,"lo2":-89.0444,"dy":0.0017,"dx":0.0017,"nx":28,"ny":28,"refTime":"2024-03-15T21:00:00:Z","depth":0,"parameterNumber":3,"parameterNumberName":"V-component_of_WINDS"},"data":[0,0,0,0,0,0,0,0,0,0,0,0,0,0,0,0,0,0,0,0,0,0,0,0,0,0,0,0,0,0,0,0,0,0,0,0,0,0,0,0,0,0,0,0,0,0,0,0,0,0,0,0,0,0,0,0,0,0,0.935,0.935,0,0.9335,0.9335,0.9335,0.9305,0.9305,0.9304,0.9304,0.9289,0.929,0.929,0,0,0,0,0,0,0,0,0,0,0,0,0,0.9354,0.9354,0.935,0.935,0.935,0.9335,0.9335,0.9335,0.9305,0.9305,0.9304,0.9303,0.9289,0.9289,0.929,0,0,0,0,0,0,0,0,0,0,0,0,0,0.9347,0.9354,0.935,0.9333,0.9332,0.9335,0.9335,0.9335,0.9306,0.9305,0.9304,0.9303,0.9289,0.9289,0.929,0.9309,0,0,0.929,0.9291,0,0,0,0,0,0,0,0,0.9347,0.9347,0.9336,0.9334,0.9333,0.9321,0.9331,0.9326,0.9306,0.9316,0.9304,0.9303,0.9301,0.93,0.9299,0.9308,0.9307,0.929,0.9291,0.9291,0.9291,0,0,0,0,0,0,0,0.9348,0.9347,0.9344,0.9336,0.9334,0.9327,0.9325,0.933,0.9313,0.9315,0.9312,0.9311,0.93,0.9299,0.9299,0.9307,0.929,0.9291,0.9291,0.9291,0.9331,0.9332,0,0,0,0,0,0,0.9351,0.9348,0.9345,0.9344,0.9338,0.9327,0.9325,0.9326,0.9313,0.931,0.9312,0.931,0.9299,0.9298,0.9298,0.932,0.9291,0.9291,0.9291,0.933,0.9332,0.9333,0,0,0,0,0,0,0.9351,0.9351,0.9345,0.9345,0.9344,0.9328,0.9329,0.9326,0.9325,0.9311,0.9308,0.9314,0.9298,0.9298,0.9306,0.9319,0.9291,0.9291,0.9329,0.9331,0.9332,0.9363,0,0,0,0,0,0,0.9351,0.9351,0.9358,0.9346,0.9344,0.9354,0.933,0.9326,0.9326,0.9323,0.9312,0.931,0.9298,0.9306,0.9307,0.9319,0.9292,0.9328,0.933,0.9332,0.9361,0.9366,0.9369,0,0,0,0,0,0.9351,0.9367,0.9358,0.9358,0.9352,0.9354,0.9354,0.9339,0.9327,0.9334,0.9325,0.931,0.9317,0.9307,0.9307,0.932,0.9327,0.9329,0.9332,0.9359,0.9365,0.9369,0,0,0,0,0,0,0.9382,0.9365,0.9355,0.9368,0.9363,0.9349,0.9358,0.9345,0.9344,0.9341,0.9323,0.9321,0.9332,0.9327,0.9316,0.9338,0.932,0.9322,0.9341,0.9346,0.935,0.9351,0.9292,0,0,0,0,0,0.939,0.9393,0.9378,0.9391,0.9389,0.9374,0.9374,0.9363,0.9357,0.9355,0.9347,0.9342,0.9343,0.9344,0.9344,0.936,0.9357,0.9369,0.9373,0.9376,0.9379,0.9387,0.9392,0.9339,0.9339,0.9339,0,0,0.9407,0.9398,0.9401,0.9397,0.9391,0.9395,0.9372,0.9377,0.938,0.9356,0.9364,0.9357,0.9351,0.9363,0.9368,0.9359,0.9392,0.9379,0.9382,0.9382,0.9389,0.9394,0.9399,0.9341,0.9341,0.934,0,0,0.944,0.9433,0.9443,0.9438,0.943,0.942,0.9423,0.9411,0.9406,0.9414,0.9396,0.9399,0.9401,0.9397,0.9396,0.9427,0.9414,0.9427,0.9449,0.9457,0.9462,0.9465,0.9477,0.9481,0.943,0.943,0.943,0,0.9462,0.9466,0.945,0.9456,0.9454,0.9433,0.9443,0.9439,0.9432,0.9432,0.9421,0.9424,0.9418,0.9429,0.9436,0.9436,0.9438,0.9429,0.9462,0.9466,0.9469,0.948,0.9484,0.9431,0.9431,0.9431,0.9431,0,0.9494,0.9498,0.9506,0.95,0.9499,0.9507,0.9492,0.9494,0.9483,0.9474,0.9482,0.9474,0.9472,0.9474,0.9463,0.9484,0.9478,0.9465,0.9447,0.9476,0.9486,0.949,0.9434,0.9433,0.9433,0.9432,0,0,0.9546,0.953,0.9534,0.9531,0.952,0.9523,0.953,0.9528,0.953,0.9526,0.9531,0.9534,0.9522,0.952,0.9508,0.9516,0.9541,0.9502,0.9501,0.951,0.9564,0.9574,0.9579,0.9532,0.9533,0.9534,0.9565,0,0.9577,0.9588,0.9573,0.9588,0.9591,0.957,0.9576,0.9571,0.9563,0.9564,0.9555,0.9557,0.9541,0.954,0.9546,0.9537,0.9552,0.9534,0.9538,0.9538,0.9541,0.9584,0.9595,0.9625,0.9568,0.9569,0.9569,0,0.9615,0.9612,0.9627,0.9616,0.9616,0.9622,0.9619,0.9621,0.9615,0.9608,0.9606,0.9593,0.9599,0.9581,0.959,0.9578,0.9579,0.9575,0.9575,0.9576,0.9556,0.9586,0.9634,0.9639,0.9575,0.9575,0.9574,0,0.9652,0.9652,0.9661,0.9659,0.9646,0.965,0.9645,0.9638,0.9638,0.9635,0.9635,0.9634,0.9633,0.9632,0.9619,0.9607,0.9629,0.961,0.9625,0.9625,0.9631,0.9631,0.968,0.963,0.963,0.963,0.963,0,0.9688,0.9698,0.9677,0.9683,0.9693,0.9676,0.9687,0.968,0.9674,0.9678,0.966,0.9664,0.9645,0.9648,0.9637,0.9646,0.9646,0.9641,0.9639,0.9643,0.9644,0.9644,0.9642,0.9631,0.9631,0.9631,0.9631,0,0.9732,0.9718,0.9726,0.9713,0.971,0.9719,0.9708,0.9713,0.9703,0.9709,0.9709,0.9694,0.9696,0.9682,0.9681,0.9674,0.9689,0.9682,0.9691,0.9689,0.9705,0.9704,0.9756,0.9762,0.9708,0.9709,0.9709,0,0.9756,0.9763,0.9751,0.9752,0.9748,0.975,0.975,0.9733,0.9734,0.9727,0.9733,0.9733,0.9732,0.9736,0.9726,0.9725,0.9719,0.9737,0.9718,0.9723,0.9719,0.9719,0.972,0.9741,0.9742,0.9742,0.9743,0,0.9801,0.9794,0.9794,0.9792,0.9792,0.9789,0.9786,0.9788,0.977,0.9771,0.9773,0.9772,0.9771,0.9772,0.9769,0.9764,0.9751,0.9748,0.9752,0.9757,0.9762,0.976,0.9702,0.9747,0.9747,0.9747,0.9746,0.9746,0.9836,0.9841,0.9834,0.9835,0.983,0.9827,0.9831,0.9822,0.9823,0.982,0.981,0.9814,0.9807,0.9802,0.9799,0.9801,0.9792,0.9797,0.9799,0.98,0.9803,0.9761,0.9801,0.98,0.98,0.98,0.98,0,0.988,0.9874,0.9875,0.9871,0.9871,0.9858,0.9853,0.9855,0.9858,0.9853,0.9852,0.9854,0.9855,0.9844,0.9843,0.9847,0.9841,0.9848,0.9848,0.9847,0.9811,0.9808,0.9853,0.9853,0.9853,0.9853,0.9853,0.9853,0.9904,0.9912,0.9904,0.991,0.9904,0.9907,0.9906,0.9903,0.9899,0.9902,0.9902,0.9895,0.9888,0.9886,0.9886,0.9883,0.9884,0.9893,0.9888,0.9854,0.9849,0.9844,0.9842,0.9893,0.9893,0.9924,0.9924,0.9924]}]]